User: anonymous   Login
Location: Unspecified
(0.0000°N, 0.0000°E)
Time: 11:03:08
(UTC+00:00)
Language:

KMS 4 - Orbit

View from above orbital plane
View from above orbital plane
View from above satellite
View from above satellite

Ground track
Ground track

The orbit data is extracted from the following two-line orbital elements,

1 41332U 16009A   17352.17077325  .00002014  00000-0  68174-4 0  9996
2 41332  97.4352  50.9490 0026139  86.1492 274.2737 15.31490064103978
Epoch (UTC): 18 December 2017 04:05:54
Eccentricity: 0.0026139
inclination: 97.4352°
perigee height: 453 km
apogee height: 489 km
right ascension of ascending node: 50.9490°
argument of perigee: 86.1492°
revolutions per day: 15.31490064
mean anomaly at epoch: 274.2737°
orbit number at epoch: 10397

The dashed part of the orbit path shows where the satellite is in the earth's shadow,  

DLR